Location: Unspecified
(0.0000°N, 0.0000°E)
Time: 14:38:16
(UTC+00:00)

STARLINK-35348 - Pass Details

Date: 22 February 2026
Orbit: 474 x 476 km, 53.2° (Epoch: 14 March)

Event Time Altitude Azimuth Distance (km) Brightness Sun altitude
Rises 19:57:48 0° 243° (WSW) 2,517 7.2 -25.7°
Reaches altitude 10° 20:00:37 10° 266° (W) 1,635 6.0 -26.4°
Maximum altitude 20:02:54 16° 304° (NW) 1,320 5.0 -26.9°
Enters shadow 20:03:44 15° 320° (NW) 1,364 4.9 -27.1°
